Stations météo

réclame
Mon MeteoGroup
De Bilt, Pays-Bas (6260): Température de l'air & dewpoint: 10.11.2019 01:00:00 - 16.11.2019 01:00:00 (CET)De Bilt, Pays-Bas (6260): Température de l'air 5cm & Température de l'air -5cm: 10.11.2019 01:00:00 - 16.11.2019 01:00:00 (CET)De Bilt, Pays-Bas (6260): Température de l'air -20cm & Température de l'air -100cm: 10.11.2019 01:00:00 - 16.11.2019 01:00:00 (CET)De Bilt, Pays-Bas (6260): Vitesse du vent & gusts: 10.11.2019 01:00:00 - 16.11.2019 01:00:00 (CET)De Bilt, Pays-Bas (6260): Direction du vent: 10.11.2019 01:00:00 - 16.11.2019 01:00:00 (CET)De Bilt, Pays-Bas (6260): reduced air pressure: 10.11.2019 01:00:00 - 16.11.2019 01:00:00 (CET)De Bilt, Pays-Bas (6260): visibility: 10.11.2019 01:00:00 - 16.11.2019 01:00:00 (CET)De Bilt, Pays-Bas (6260): Quantités de précipitations: 10.11.2019 01:00:00 - 16.11.2019 01:00:00 (CET)
Date & Time tt [°C] td [°C] tt 5cm [°C] tt -5cm [°C] tt -20cm [°C] tt -100cm [°C] ff [km/h] ff [knt] fx [km/h] fx [knt] dd ppp [hPa] vv [km] rr [mm]
16.11.2019 01:00:00 - - - - - - - - - - - - - -
16.11.2019 00:00:00 3,0 2,8 1,2 7,7 8,5 11,4 4 2 7 4 ENE 1004,9 2,8 0,0
15.11.2019 23:00:00 4,3 3,4 3,6 7,7 8,5 11,4 4 2 4 2 ESE 1004,8 5 0,0
15.11.2019 22:00:00 4,7 3,4 4,3 7,7 8,5 11,4 4 2 4 2 ENE 1004,7 7 0,0
15.11.2019 21:00:00 4,9 3,4 4,5 7,6 8,5 11,4 4 2 4 2 E 1004,1 7 0,0
15.11.2019 20:00:00 5,3 3,2 4,8 7,6 8,5 11,4 7 4 11 6 E 1003,4 9 0,0
15.11.2019 19:00:00 5,2 3,2 4,1 7,7 8,5 11,4 7 4 11 6 E 1002,7 8 0,0
15.11.2019 18:00:00 5,0 2,8 4,1 7,6 8,5 11,4 7 4 14 8 E 1002,0 8 0,0
15.11.2019 17:00:00 5,4 2,9 4,9 7,6 8,4 11,4 14 8 22 12 E 1001,4 8 0,0
15.11.2019 16:00:00 5,5 2,6 5,1 7,5 8,4 11,4 14 8 25 14 ENE 1000,8 8 0,0
15.11.2019 15:00:00 5,4 2,3 5,2 7,5 8,4 11,4 14 8 25 14 ENE 1001,0 8 0,0
15.11.2019 14:00:00 5,3 2,0 5,0 7,5 8,4 11,4 18 10 32 18 NE 1000,5 8 0,0
15.11.2019 13:00:00 5,4 2,0 5,3 7,4 8,4 11,4 18 10 29 16 ENE 1001,1 10 0,0
15.11.2019 12:00:00 5,3 2,2 5,2 7,3 8,4 11,5 14 8 25 14 NE 1001,6 11 0,0
15.11.2019 11:00:00 5,0 1,7 4,8 7,3 8,5 11,5 18 10 29 16 NE 1001,4 11 0,0
15.11.2019 10:00:00 4,4 1,4 4,1 7,3 8,5 11,5 11 6 25 14 NE 1001,9 11 0,0
15.11.2019 09:00:00 4,1 1,1 3,7 7,4 8,5 11,5 18 10 32 18 ENE 1001,9 11 0,0
15.11.2019 08:00:00 3,7 1,1 3,3 7,4 8,6 11,5 18 10 36 19 ENE 1001,3 10 0,0
15.11.2019 07:00:00 3,1 1,1 2,5 7,5 8,6 11,5 11 6 29 16 NE 1001,6 8 0,0
15.11.2019 06:00:00 2,9 1,4 2,4 7,6 8,6 11,5 18 10 29 16 NE 1001,6 6 0,0
15.11.2019 05:00:00 2,7 1,4 1,9 7,7 8,7 11,5 14 8 25 14 NE 1002,2 6 0,0
15.11.2019 04:00:00 2,9 1,7 2,1 7,8 8,7 11,5 11 6 22 12 NE 1002,4 8 0,0
15.11.2019 03:00:00 3,1 1,8 2,0 7,9 8,7 11,5 14 8 18 10 NE 1002,8 10 0,0
15.11.2019 02:00:00 3,8 2,0 2,8 7,9 8,7 11,5 11 6 14 8 NNE 1003,2 15 0,0
15.11.2019 01:00:00 4,2 2,1 2,7 8,0 8,7 11,5 11 6 14 8 ENE 1003,9 20 0,0
15.11.2019 00:00:00 4,8 2,6 3,8 8,1 8,7 11,5 11 6 18 10 ENE 1003,6 25 0,0
14.11.2019 23:00:00 5,4 3,2 4,7 8,1 8,7 11,5 11 6 14 8 ENE 1003,8 27 0,0
14.11.2019 22:00:00 6,0 3,3 5,2 8,1 8,7 11,5 7 4 11 6 ENE 1004,4 41 0,0
14.11.2019 21:00:00 6,2 3,4 5,5 8,1 8,7 11,6 11 6 18 10 E 1004,2 38 0,0
14.11.2019 20:00:00 6,5 3,8 5,9 8,1 8,7 11,6 11 6 14 8 ENE 1003,8 40 0,0
14.11.2019 19:00:00 6,7 3,8 6,0 8,1 8,7 11,6 7 4 11 6 E 1004,0 42 0,0
14.11.2019 18:00:00 6,9 3,9 6,2 8,0 8,6 11,6 7 4 11 6 E 1003,2 44 0,0
14.11.2019 17:00:00 7,2 3,9 6,5 8,0 8,6 11,6 7 4 18 10 ESE 1002,7 43 0,0
14.11.2019 16:00:00 7,5 3,7 7,0 7,9 8,5 11,6 11 6 18 10 ESE 1002,5 44 0,0
14.11.2019 15:00:00 7,5 3,8 7,2 7,8 8,5 11,6 14 8 29 16 ESE 1001,3 39 0,0
14.11.2019 14:00:00 7,4 3,4 7,2 7,7 8,5 11,6 22 12 32 18 SE 1001,4 40 0,0
14.11.2019 13:00:00 7,2 3,5 6,9 7,6 8,5 11,6 18 10 29 16 SE 1001,4 40 0,0
14.11.2019 12:00:00 7,0 3,3 6,8 7,5 8,5 11,6 22 12 36 19 SE 1001,2 43 0,0
14.11.2019 11:00:00 6,4 3,2 5,8 7,4 8,5 11,6 18 10 29 16 SE 1000,7 34 0,0
14.11.2019 10:00:00 5,7 3,0 5,1 7,4 8,5 11,6 18 10 32 18 SE 1000,5 30 0,0
14.11.2019 09:00:00 5,2 2,8 4,5 7,4 8,6 11,6 18 10 29 16 SE 1000,2 33 0,0
14.11.2019 08:00:00 4,9 2,8 4,1 7,5 8,6 11,6 14 8 29 16 ESE 999,6 33 0,0
14.11.2019 07:00:00 4,3 2,7 3,0 7,5 8,7 11,6 14 8 25 14 ESE 999,2 21 0,0
14.11.2019 06:00:00 3,6 2,5 2,5 7,6 8,7 11,7 14 8 22 12 ESE 998,9 15 0,0
14.11.2019 05:00:00 3,8 2,8 2,7 7,7 8,7 11,7 11 6 18 10 SE 998,9 15 0,0
14.11.2019 04:00:00 4,0 2,9 2,8 7,7 8,8 11,7 11 6 22 12 SE 998,8 14 0,0
14.11.2019 03:00:00 4,2 3,2 3,1 7,8 8,8 11,7 11 6 18 10 SE 998,9 14 0,0
14.11.2019 02:00:00 4,5 3,5 3,6 7,9 8,8 11,7 11 6 18 10 SSE 999,0 12 0,0
14.11.2019 01:00:00 4,9 4,0 3,8 7,9 8,8 11,7 11 6 22 12 SE 999,0 11 0,4
14.11.2019 00:00:00 4,7 3,9 3,6 8,0 8,9 11,7 11 6 18 10 SSE 999,3 11 0,0
13.11.2019 23:00:00 5,6 4,6 4,9 8,0 8,9 11,7 11 6 18 10 SSE 999,4 12 0,0
13.11.2019 22:00:00 5,1 4,4 4,2 8,1 8,9 11,7 7 4 14 8 SSE 999,7 11 0,0
13.11.2019 21:00:00 4,3 3,7 2,3 8,2 8,9 11,7 7 4 11 6 SSE 999,8 10 0,0
13.11.2019 20:00:00 4,4 3,7 3,2 8,3 8,9 11,7 7 4 14 8 SSE 1000,0 22 0,0
13.11.2019 19:00:00 5,4 4,4 4,6 8,4 8,9 11,7 11 6 18 10 SSE 1000,3 43 0,0
13.11.2019 18:00:00 6,0 4,7 5,3 8,4 8,9 11,7 11 6 18 10 S 1000,4 46 0,0
13.11.2019 17:00:00 6,4 4,2 5,7 8,4 8,8 11,8 7 4 14 8 SSW 1000,2 50 0,0
13.11.2019 16:00:00 7,0 4,5 6,7 8,3 8,8 11,8 11 6 22 12 SW 1000,1 44 0,0
13.11.2019 15:00:00 7,2 6,1 7,1 8,2 8,7 11,8 7 4 11 6 SE 999,7 13 0,2
13.11.2019 14:00:00 7,3 5,6 7,2 8,1 8,7 11,8 4 2 7 4 NNE 999,8 36 0,6
13.11.2019 13:00:00 6,8 5,7 6,7 8,0 8,7 11,8 7 4 18 10 W 1000,0 7 2,2
13.11.2019 12:00:00 7,6 5,4 7,4 7,9 8,6 11,8 18 10 32 18 SW 999,3 28 0,1
13.11.2019 11:00:00 7,7 6,2 7,5 7,8 8,6 11,8 14 8 25 14 SW 999,0 31 0,0
13.11.2019 10:00:00 7,7 5,8 7,9 7,7 8,6 11,8 11 6 18 10 SSW 998,6 35 0,0
13.11.2019 09:00:00 6,8 5,5 6,5 7,7 8,6 11,8 11 6 25 14 W 998,3 20 0,1
13.11.2019 08:00:00 6,0 5,2 5,2 7,6 8,6 11,8 14 8 22 12 SSW 997,7 8 0,3
13.11.2019 07:00:00 5,7 5,0 5,0 7,6 8,7 11,8 14 8 22 12 SSW 997,1 7 0,3
13.11.2019 06:00:00 5,7 4,9 5,0 7,6 8,7 11,8 18 10 29 16 SSW 997,0 6 0,6
13.11.2019 05:00:00 5,5 4,6 5,2 7,6 8,7 11,9 14 8 32 18 S 996,6 8 0,6
13.11.2019 04:00:00 5,4 4,4 5,2 7,6 8,7 11,9 14 8 29 16 SSW 996,5 6 2,5
13.11.2019 03:00:00 5,6 4,3 5,3 7,6 8,7 11,9 18 10 36 19 SSW 996,4 9 0,7
13.11.2019 02:00:00 5,3 3,9 5,1 7,6 8,7 11,9 22 12 40 21 SSW 996,4 12 0,1
13.11.2019 01:00:00 5,2 3,4 4,8 7,6 8,7 11,9 18 10 36 19 SSW 996,2 20 0,1
13.11.2019 00:00:00 5,2 2,8 4,9 7,6 8,7 11,9 22 12 32 18 S 996,6 11 0,1
12.11.2019 23:00:00 5,1 2,6 4,7 7,7 8,8 11,9 22 12 47 25 S 997,0 35 0,0
12.11.2019 22:00:00 4,7 2,2 4,2 7,7 8,8 11,9 22 12 40 21 S 997,3 37 0,0
12.11.2019 21:00:00 4,9 2,3 4,3 7,8 8,8 11,9 22 12 32 18 S 997,3 42 0,0
12.11.2019 20:00:00 5,1 2,2 4,2 7,9 8,8 11,9 22 12 36 19 S 997,5 47 0,0
12.11.2019 19:00:00 5,3 2,3 4,4 7,9 8,8 12,0 22 12 32 18 S 997,7 46 0,0
12.11.2019 18:00:00 5,7 2,3 4,7 8,0 8,8 12,0 22 12 32 18 S 998,1 47 0,0
12.11.2019 17:00:00 6,1 2,5 4,8 8,0 8,8 12,0 14 8 22 12 S 998,4 44 0,0
12.11.2019 16:00:00 7,0 3,3 6,5 7,9 8,8 12,0 14 8 25 14 S 998,3 42 0,0
12.11.2019 15:00:00 7,0 4,0 6,6 7,8 8,7 12,0 14 8 22 12 S 998,2 35 0,0
12.11.2019 14:00:00 5,9 3,3 6,7 7,8 8,7 12,0 18 10 29 16 S 998,4 42 0,0
12.11.2019 13:00:00 4,1 2,5 4,1 7,7 8,7 12,0 18 10 36 19 SW 998,8 23 0,6
12.11.2019 12:00:00 5,7 2,9 5,8 7,7 8,7 12,0 18 10 32 18 SSW 998,9 36 0,0
12.11.2019 11:00:00 5,2 2,7 5,1 7,7 8,7 12,0 18 10 32 18 SSW 999,3 31 0,0
12.11.2019 10:00:00 5,0 3,0 4,8 7,7 8,7 12,0 18 10 29 16 SSW 999,3 25 0,0
12.11.2019 09:00:00 4,6 3,0 4,3 7,7 8,8 12,1 11 6 22 12 SSW 999,6 18 0,0
12.11.2019 08:00:00 4,1 2,8 3,9 7,7 8,8 12,1 11 6 25 14 SSW 999,3 19 0,0
12.11.2019 07:00:00 4,4 3,0 4,2 7,7 8,8 12,1 18 10 29 16 SSW 999,6 18 0,0
12.11.2019 06:00:00 4,7 3,5 4,5 7,7 8,8 12,1 14 8 25 14 S 999,4 16 0,0
12.11.2019 05:00:00 5,0 3,8 4,7 7,7 8,8 12,1 14 8 22 12 SSW 999,6 14 1,3
12.11.2019 04:00:00 5,1 3,7 4,7 7,7 8,8 12,1 22 12 40 21 SSW 999,7 7 0,6
12.11.2019 03:00:00 4,9 3,5 4,2 7,8 8,9 12,1 18 10 36 19 SSW 999,7 19 0,7
12.11.2019 02:00:00 5,2 3,8 4,9 7,8 8,9 12,1 18 10 36 19 S 999,9 10 1,8
12.11.2019 01:00:00 5,0 3,6 4,7 7,9 8,9 12,2 14 8 32 18 SSW 1000,2 20 1,9
12.11.2019 00:00:00 5,4 3,7 5,1 7,9 8,9 12,2 22 12 36 19 SW 1000,1 10 0,5
11.11.2019 23:00:00 5,8 4,0 5,2 7,9 8,9 12,2 18 10 40 21 SSW 999,8 33 0,1
11.11.2019 22:00:00 5,7 4,5 5,4 7,9 8,9 12,2 14 8 29 16 SSW 1000,0 16 0,3
11.11.2019 21:00:00 6,1 4,5 5,6 7,9 8,9 12,2 22 12 36 19 SSW 999,7 21 0,0
11.11.2019 20:00:00 6,3 4,9 5,7 7,9 8,8 12,2 14 8 25 14 SSW 999,2 34 2,4
11.11.2019 19:00:00 6,3 5,5 6,1 7,9 8,8 12,2 14 8 32 18 SW 999,5 6 2,1
11.11.2019 18:00:00 6,4 4,9 5,8 7,9 8,8 12,2 14 8 32 18 SSW 998,6 44 0,0
11.11.2019 17:00:00 6,4 4,8 6,1 7,8 8,7 12,2 22 12 36 19 SSW 998,5 34 0,0
11.11.2019 16:00:00 6,1 4,2 5,8 7,8 8,7 12,2 22 12 43 23 S 998,6 48 0,6
11.11.2019 15:00:00 6,6 4,3 6,3 7,7 8,6 12,3 22 12 40 21 SSW 999,2 14 0,4
11.11.2019 14:00:00 7,5 4,1 7,2 7,6 8,6 12,3 25 14 40 21 S 999,6 40 0,0
11.11.2019 13:00:00 7,8 3,9 7,4 7,5 8,6 12,3 22 12 36 19 S 1000,6 45 0,0
11.11.2019 12:00:00 7,7 3,8 7,3 7,3 8,5 12,3 22 12 40 21 S 1001,8 45 0,0
11.11.2019 11:00:00 7,4 4,0 7,0 7,2 8,5 12,3 18 10 40 21 S 1002,8 35 0,0
11.11.2019 10:00:00 6,6 4,2 6,3 7,0 8,5 12,3 18 10 32 18 SSE 1003,8 24 0,0
11.11.2019 09:00:00 5,2 3,5 4,9 7,0 8,5 12,3 18 10 25 14 SSE 1005,0 16 0,0
11.11.2019 08:00:00 4,1 3,0 3,7 6,9 8,6 12,3 14 8 29 16 SSE 1005,5 11 0,0
11.11.2019 07:00:00 3,4 2,6 3,1 6,9 8,6 12,3 14 8 25 14 SSE 1006,7 9 0,0
11.11.2019 06:00:00 2,8 2,1 2,5 6,9 8,7 12,3 14 8 25 14 SSE 1007,9 6 0,0
11.11.2019 05:00:00 2,2 1,6 1,6 6,9 8,7 12,3 11 6 18 10 SSE 1009,0 4,6 0,0
11.11.2019 04:00:00 1,7 1,1 1,0 6,9 8,8 12,3 11 6 14 8 SE 1010,4 4,1 0,0
11.11.2019 03:00:00 1,3 0,8 0,3 7,0 8,9 12,4 7 4 14 8 SSE 1011,4 3,7 0,0
11.11.2019 02:00:00 1,1 0,7 -0,9 7,1 8,9 12,4 11 6 14 8 SSE 1011,9 3,3 0,0
11.11.2019 01:00:00 -0,1 -0,7 -3,1 7,3 9,0 12,4 7 4 11 6 SSE 1012,8 1,1 0,0
11.11.2019 00:00:00 1,3 0,8 -2,1 7,4 9,1 12,4 7 4 11 6 S 1013,2 3,6 0,0
10.11.2019 23:00:00 -1,1 -1,8 -4,3 7,6 9,2 12,4 11 6 14 8 SSE 1013,0 0,3 0,0
10.11.2019 22:00:00 -1,3 -1,5 -4,0 7,8 9,2 12,4 7 4 7 4 SSE 1013,9 1,4 0,0
10.11.2019 21:00:00 -0,6 -0,8 -3,7 7,9 9,3 12,4 7 4 7 4 SSE 1014,1 0,4 0,0
10.11.2019 20:00:00 -0,2 -0,6 -3,0 8,1 9,3 12,4 4 2 7 4 ESE 1014,6 0,5 0,0
10.11.2019 19:00:00 0,9 0,5 -2,3 8,3 9,3 12,4 0 0 4 2 N 1014,9 1,1 0,0
10.11.2019 18:00:00 2,1 1,1 -1,0 8,4 9,3 12,4 0 0 4 2 N 1014,7 7 0,0
10.11.2019 17:00:00 4,7 2,6 1,7 8,5 9,3 12,4 4 2 7 4 SSW 1014,2 14 0,0
10.11.2019 16:00:00 8,5 3,0 8,0 8,4 9,3 12,4 4 2 4 2 S 1014,1 24 0,0
10.11.2019 15:00:00 9,1 2,4 10,2 8,3 9,2 12,5 4 2 7 4 S 1013,8 25 0,0
10.11.2019 14:00:00 8,7 3,3 10,2 8,0 9,2 12,5 4 2 11 6 SSE 1013,5 21 0,0
10.11.2019 13:00:00 8,0 3,1 9,7 7,8 9,2 12,5 4 2 7 4 SSE 1013,4 18 0,0
10.11.2019 12:00:00 6,9 2,8 8,2 7,6 9,2 12,5 4 2 7 4 S 1013,4 16 0,0
10.11.2019 11:00:00 5,2 2,3 6,0 7,5 9,3 12,5 4 2 11 6 S 1013,3 12 0,0
10.11.2019 10:00:00 3,5 1,6 3,9 7,5 9,4 12,5 4 2 7 4 SSE 1012,8 9 0,0
10.11.2019 09:00:00 1,4 1,1 -0,3 7,6 9,4 12,5 4 2 11 6 SSE 1011,9 3,9 0,0
10.11.2019 08:00:00 -0,9 -1,3 -4,1 7,8 9,5 12,5 7 4 11 6 SSE 1011,1 0,3 0,0
10.11.2019 07:00:00 -0,6 -0,7 -3,4 7,9 9,6 12,5 4 2 7 4 SE 1010,2 0,1 0,0
10.11.2019 06:00:00 0,5 0,2 -2,8 8,1 9,7 12,5 4 2 11 6 SSE 1009,8 1,3 0,0
10.11.2019 05:00:00 -0,2 -0,5 -3,1 8,3 9,8 12,5 4 2 7 4 SSE 1009,2 0,2 0,0
10.11.2019 04:00:00 0,3 -0,1 -2,8 8,5 9,8 12,5 7 4 7 4 SSE 1008,8 0,3 0,0
10.11.2019 03:00:00 1,0 0,4 -2,1 8,6 9,9 12,5 7 4 11 6 SSE 1008,2 2,6 0,0
10.11.2019 02:00:00 1,6 1,2 -1,7 8,8 9,9 12,5 7 4 7 4 SSE 1007,8 5 0,0
10.11.2019 01:00:00 2,0 1,3 -0,9 8,9 10,0 12,6 4 2 11 6 SSE 1007,7 6 0,0

tt = Température de l'air
td = dewpoint
tt 5cm = Température de l'air 5cm
tt -5cm = Température de l'air -5cm
tt -20cm = Température de l'air -20cm
tt -100cm = Température de l'air -100cm
ff = Vitesse du vent
fx = gusts
dd = Direction du vent
ppp = reduced air pressure
vv = visibility
rr = Quantités de précipitations

stations d'obs. à proximité